This demonstration page uses our WeatherBlox Daily Observations layout. Learn more.

Left ArrowRight Arrow

41.55636, -103.73856

Hourly Observations for March 3, 2021

Temp ( °F °C ) Dew Point ( °F °C ) Humidity (%) Winds ( mph kmh ) Pressure ( in mb ) Visibility ( mi km ) Precip ( " mm )
12:58 am 00:58 Clear 31 -0.3 14 -10.1 48 48 W 16 26 29.96 1014 10 16.0934 0 0
1:58 am 01:58 Clear 35 1.8 14 -9.8 42 42 WSW 16 26 29.95 1014 10 16.0934 0 0
2:58 am 02:58 Clear 36 2.2 15 -9.4 42 42 WSW 18 30 29.96 1015 10 16.0934 0 0
3:58 am 03:58 Clear 38 3.2 15 -9.3 40 40 WSW 18 30 29.95 1014 10 16.0934 0 0
4:58 am 04:58 Clear 33 0.8 16 -9.1 48 48 W 10 17 30 1016 10 16.0934 0 0
5:58 am 05:58 Clear 33 0.7 16 -9 49 49 W 14 22 30.05 1018 10 16.0934 0 0
6:58 am 06:58 Sunny 34 1 16 -9.1 47 47 W 12 19 30.09 1019 10 16.0934 0 0
7:58 am 07:58 Sunny 42 5.4 18 -7.9 38 38 WNW 6 9 30.09 1019 10 16.0934 0 0
8:58 am 08:58 Sunny 45 7.1 15 -9.5 30 30 WNW 6 9 30.08 1019 10 16.0934 0 0
9:58 am 09:58 Sunny 51 10.8 9 -12.6 18 18 W 8 13 30.03 1017 10 16.0934 0 0
10:58 am 10:58 Sunny 53 11.7 9 -12.9 17 17 W 6 9 30.04 1017 10 16.0934 0 0
11:58 am 11:58 Sunny 56 13.3 8 -13.4 14 14 W 7 11 30.03 1017 10 16.0934 0 0
12:58 pm 12:58 Sunny 58 14.6 6 -14.5 12 12 SSW 9 15 30 1016 10 16.0934 0 0
1:58 pm 13:58 Sunny 59 14.8 8 -13.3 13 13 S 5 7 29.97 1015 10 16.0934 0 0
2:58 pm 14:58 Sunny 59 15.2 7 -13.8 12 12 W 5 7 29.95 1014 10 16.0934 0 0
3:58 pm 15:58 Sunny 59 15.2 8 -13.4 13 13 Calm 29.95 1014 10 16.0934 0 0
4:58 pm 16:58 Sunny 57 13.7 8 -13.1 14 14 S 6 9 30 1016 10 16.0934 0 0
5:58 pm 17:58 Clear 51 10.3 10 -12.5 19 19 S 7 11 30.04 1017 10 16.0934 0 0
6:58 pm 18:58 Clear 44 6.4 12 -11 28 28 ESE 8 13 30.06 1018 10 16.0934 0 0
7:58 pm 19:58 Clear 44 6.4 13 -10.7 29 29 SE 9 15 30.03 1017 10 16.0934 0 0
8:58 pm 20:58 Clear 43 5.9 14 -10.2 31 31 SE 7 11 30.03 1017 10 16.0934 0 0
9:58 pm 21:58 Clear 34 1.2 15 -9.3 46 46 S 10 17 30.04 1017 10 16.0934 0 0
10:58 pm 22:58 Clear 33 0.7 15 -9.7 46 46 S 12 19 30.03 1017 10 16.0934 0 0
11:58 pm 23:58 Clear 31 -0.4 15 -9.7 50 50 S 13 20 30.02 1017 10 16.0934 0 0

Powered by AerisWeather